Terminal Aerodrome Forecast
Issued by NWS

Home | Current Version | Previous Version | Graphics & Text | Print | Product List | Glossary On
Versions: 1 2 3 4 5 6 7 8 9 10 11 12 13 14 15 16 17 18 19 20 21 22 23 24 25 26 27 28
349
FTUS43 KLOT 240853 AAA
TAFORD
TAF AMD
KORD 240853Z 2409/2512 29010KT P6SM FEW070
     FM241500 29015G23KT P6SM BKN050
     FM250100 27008KT P6SM SCT050 BKN070=

USA.gov is the U.S. government's official web portal to all federal, state and local government web resources and services.